Regional Weather Roundup
Issued by NWS

Home | Current Version | Previous Version | Graphics & Text | Print | Product List | Glossary On
Versions: 1 2 3 4 5 6 7 8 9 10 11 12 13 14 15 16 17 18 19 20 21 22 23 24 25 26 27 28 29 30 31 32 33 34 35 36 37 38 39 40 41 42 43 44 45 46 47 48 49 50
000
ASUS43 KLSX 310207
RWRMO

WEATHER SUMMARY FOR MISSOURI
NATIONAL WEATHER SERVICE SPRINGFIELD MO
900 PM CDT THU OCT 30 2014

NOTE: "FAIR" INDICATES FEW OR NO CLOUDS BELOW 12,000 FEET WITH NO
       SIGNIFICANT WEATHER AND/OR OBSTRUCTIONS TO VISIBILITY.
       CURRENT SKY AND/OR WEATHER CONDITIONS ARE NOT AVAILABLE FOR
       CHILLICOTHE AND FARMINGTON.

MOZ001>031-035>038-043-044-053-054-310300-
...NORTHERN AND WESTERN MISSOURI...

CITY           SKY/WX    TMP DP  RH WIND       PRES   REMARKS
KANSAS CTY INT CLEAR     55  41  59 NW10      30.13R
KANSAS C DTWN  CLEAR     59  41  51 N8        30.12R
LEE`S SUMMIT   CLEAR     57  41  55 N15G22    30.12R
ST JOSEPH      PTCLDY    56  41  57 N16G25    30.16R
CHILLICOTHE      N/A     56  39  53 N6        30.10R
KIRKSVILLE     CLOUDY    49  43  80 N5        30.07R

$$
MOZ066>068-077>081-088>096-101>105-310300-
...SOUTHWEST MISSOURI...

CITY           SKY/WX    TMP DP  RH WIND       PRES   REMARKS
SPRINGFIELD    CLEAR     53  39  59 NW8       30.06R
JOPLIN         CLEAR     53  39  59 NW5       30.11R

$$
MOZ032>034-039>042-045>050-055>058-069>072-310300-
...CENTRAL MISSOURI...

CITY           SKY/WX    TMP DP  RH WIND       PRES   REMARKS
COLUMBIA       PTCLDY    50  47  89 NE3       30.03S
JEFFERSON CITY PTCLDY    47  45  93 CALM      30.03S
ROLLA          CLEAR     40  40 100 CALM      30.01S
SEDALIA        CLEAR     55  42  61 NW10      30.07R
WHITEMAN AFB   CLEAR     57  41  55 NW12      30.07R
OSAGE BEACH    CLEAR     46  45  93 CALM      30.04R

$$
MOZ051-052-059>065-310300-
...EAST CENTRAL MISSOURI...

CITY           SKY/WX    TMP DP  RH WIND       PRES   REMARKS
ST LOUIS INTL  MOCLDY    54  45  71 W3        30.03S
SPIRIT OF STL  PTCLDY    48  45  89 CALM      30.03S
ST CHARLES     PTCLDY    49  47  93 CALM      30.03S

$$
MOZ072>076-082>087-097>100-106>115-310300-
...SOUTH CENTRAL AND SOUTHEAST MISSOURI...

CITY           SKY/WX    TMP DP  RH WIND       PRES   REMARKS
CAPE GIRARDEAU CLOUDY    53  50  89 NW3       30.04S
FARMINGTON     CLOUDY    48  46  93 CALM      30.04S
POPLAR BLUFF   MOCLDY    53  47  79 N3        30.01F
WEST PLAINS    CLEAR     46  41  82 CALM      30.03S

$$



USA.gov is the U.S. government's official web portal to all federal, state and local government web resources and services.